Lid_Strength_Index
-1 0 -1 1 6 6 9 8 7 7 7 6 5 5 6 5 6 8 1 -0 -1 -1 -1 -1 -1 -2 -2 -2 -1 -2 -2 -2 -2 -2 -2 -2 -2 -2 -2 -2 -2 -2 -2 -2 -2 -2 -2 -2 -2
1 1 0 3 8 10 8 7 8 6 6 5 5 5 5 6 4 3 2 -0 -1 -1 -1 -1 -1 -2 -2 -1 -1 -2 -2 -2 -2 -2 -2 -2 -2 -2 -2 -2 -2 -2 -2 -2 -2 -2 -2 -2 -2
2 3 3 5 7 9 9 7 7 6 5 6 5 4 4 5 3 2 1 -0 -1 -1 -1 -1 -1 -1 -1 -1 -2 -2 -2 -2 -2 -2 -2 -2 -2 -2 -2 -2 -2 -2 -2 -2 -2 -2 -2 -2 -2
1 2 4 7 9 7 8 7 6 5 6 6 5 6 4 2 2 1 -0 -1 -0 -1 -1 -1 -1 -1 -1 -1 -2 -2 -2 -2 -2 -2 -2 -2 -2 -2 -2 -2 -2 -2 -2 -2 -2 -2 -2 -2 -2
2 3 6 8 8 8 7 7 6 6 6 6 4 6 5 2 1 0 0 -0 0 -1 -1 -1 -1 -1 -1 -1 -2 -2 -2 -2 -2 -2 -2 -2 -2 -2 -2 -2 -2 -2 -2 -2 -2 -2 -1 -1 -2
4 4 8 9 8 8 7 6 6 5 6 6 6 5 4 1 1 0 -0 -0 -1 -0 -1 -1 1 -0 -1 -1 -1 -2 -2 -2 -2 -2 -2 -2 -2 -2 -2 -2 -2 -2 -2 -2 -2 -1 -0 -1 -1
5 6 8 8 9 8 7 6 6 6 6 6 5 6 4 2 1 0 -0 -0 -1 -1 -1 -1 -1 -1 1 -0 -0 -1 -1 -1 -2 -2 -2 -2 -2 -2 -2 -2 -2 -2 -2 -2 -1 -1 -0 -1 -1
5 5 9 8 9 8 6 6 6 5 6 5 3 6 6 2 1 0 0 0 -0 -1 -1 -1 -1 -1 -1 -2 1 0 -0 -1 -1 -1 -1 -1 -1 -1 -1 -1 -1 -1 -1 -1 -0 0 0 -0 -1
7 7 9 9 9 7 7 7 7 6 6 6 5 5 4 1 1 1 1 1 1 0 -0 -1 -1 -1 -1 -1 -0 1 1 0 0 -0 1 1 -0 -0 -1 -0 -0 0 1 1 1 1 1 1 2
6 8 8 8 7 7 7 7 6 7 7 7 6 5 5 2 2 3 3 3 2 1 0 -0 -1 -1 -1 -1 -1 -1 -1 -2 -2 -1 -0 -1 -1 -1 -1 1 1 1 1 1 2 2 3 2 2
8 9 9 8 8 7 7 8 6 7 8 6 6 5 5 3 3 3 2 2 2 1 0 -0 -1 -1 -1 -1 -1 -1 -1 -1 -1 -1 -1 -1 -1 -1 -1 -0 0 1 2 2 2 2 3 3 2
9 8 8 8 7 7 8 7 8 7 6 5 5 5 5 4 3 3 3 2 2 1 1 0 -1 -1 -1 -1 -1 -1 -1 -1 -1 -1 -1 -1 -1 -0 0 1 2 2 1 2 2 3 3 3 4
8 8 8 8 8 8 8 8 7 7 6 5 6 7 6 5 3 2 2 1 1 2 1 1 1 0 -1 -1 -1 -1 -1 -1 -1 -1 -1 -1 -0 -0 0 1 2 3 2 3 3 5 5 5 5
8 8 8 7 7 8 8 8 8 7 6 6 7 6 6 6 4 2 2 2 2 1 1 2 3 2 1 0 -1 -1 -1 -1 -1 -1 -1 0 -0 1 1 2 2 2 3 3 4 5 6 7 7
8 9 8 7 8 8 8 9 8 6 7 7 7 6 6 6 5 3 2 2 1 1 1 3 3 3 3 2 1 -0 -1 -1 -1 -1 -1 -0 0 1 2 2 2 3 2 3 4 6 7 9 10
9 9 10 9 9 9 8 10 7 7 7 7 6 6 6 6 6 5 3 1 1 1 2 3 5 4 3 3 2 1 -1 -1 -0 -0 -1 -1 0 1 2 2 3 3 4 4 6 7 9 10 11
9 11 11 10 9 9 9 9 7 8 8 7 6 6 6 6 6 6 5 3 1 1 2 3 4 4 3 3 3 2 1 0 -0 0 -1 -1 -0 0 1 2 4 4 6 6 7 8 9 11 12
11 12 12 11 10 10 9 9 7 7 7 7 6 6 6 6 6 5 6 5 4 2 2 3 3 2 2 1 1 1 1 2 2 1 2 0 -0 0 1 3 5 5 6 7 7 9 10 10 12
11 11 11 10 10 10 10 10 8 7 7 8 7 6 6 6 5 5 5 6 6 5 4 4 4 3 2 2 3 3 3 3 3 5 4 4 1 1 2 5 5 6 7 8 9 12 12 12 12
11 11 11 10 10 11 10 10 9 8 8 7 7 6 6 6 5 6 6 6 6 6 5 5 5 4 3 3 3 3 3 4 4 6 6 6 5 3 4 6 6 7 8 9 11 12 13 13 11
11 11 11 11 10 10 11 11 10 8 8 8 7 6 6 6 6 6 7 7 6 6 6 6 5 4 3 3 3 5 5 6 7 8 7 8 7 6 6 6 6 8 8 10 11 11 12 12 11
12 10 10 11 12 14 11 15 11 9 9 8 7 6 6 6 6 7 7 7 7 7 6 6 5 5 4 4 5 5 5 5 5 6 7 9 9 9 7 7 8 9 8 9 11 11 10 10 11
11 10 11 11 12 13 12 14 12 11 10 9 7 6 7 6 7 7 8 7 7 7 7 6 6 5 4 4 5 5 5 4 4 6 9 9 11 10 10 9 8 9 8 9 10 11 9 9 9
10 10 11 11 12 15 12 13 13 11 10 9 7 8 8 8 8 8 9 9 9 8 7 7 6 6 5 5 5 5 5 4 6 7 9 11 12 12 12 11 10 10 10 10 10 9 9 8 8
10 11 14 15 16 16 13 14 12 10 9 8 7 7 8 8 7 8 9 9 10 9 8 7 7 6 6 6 6 6 5 5 6 6 7 10 13 14 14 14 14 12 12 11 10 9 9 8 9
11 11 13 20 16 14 14 15 11 9 8 7 7 8 9 8 8 9 9 9 9 9 8 7 7 7 6 6 6 6 5 6 5 6 7 9 11 12 13 14 14 14 13 12 11 10 9 9 10
12 13 10 13 17 15 13 11 9 9 9 9 8 9 8 7 8 9 9 9 9 9 8 8 8 7 7 7 6 6 6 6 7 8 9 10 11 13 15 16 16 15 14 13 12 10 12 12 12
10 9 13 13 19 19 14 13 12 10 9 8 8 9 7 8 9 9 10 10 9 9 8 8 7 7 7 7 7 7 7 7 8 11 11 12 14 15 16 16 16 16 15 14 12 12 13 13 13
12 13 12 12 13 17 18 14 9 8 8 8 8 8 8 8 8 9 9 10 10 9 9 8 8 8 8 8 7 8 8 9 10 11 11 13 14 16 17 17 17 16 16 15 15 14 14 15 15
11 12 12 14 16 14 14 14 10 10 10 9 8 9 8 8 8 9 9 9 10 9 9 9 8 8 8 8 8 8 9 10 11 12 13 14 15 16 16 16 17 17 17 15 16 15 15 15 16